Time,TemperatureF,DewpointF,PressureIn,WindDirection,WindDirectionDegrees,WindSpeedMPH,WindSpeedGustMPH,Humidity,HourlyPrecipIn,Conditions,Clouds,dailyrainin,SoftwareType,DateUTC
2013-02-24 00:01:00,25.0,21.0,29.90,West,266,0.0,0.0,84,0.00,,,0.00,,2013-02-24 06:01:00,
2013-02-24 00:11:00,25.0,21.0,29.90,West,266,0.0,0.0,84,0.00,,,0.00,,2013-02-24 06:11:00,
2013-02-24 00:21:00,25.0,21.0,29.91,West,266,0.0,1.0,83,0.00,,,0.00,,2013-02-24 06:21:00,
2013-02-24 00:31:00,25.0,21.0,29.91,West,266,0.0,1.0,83,0.00,,,0.00,,2013-02-24 06:31:00,
2013-02-24 00:42:00,25.0,21.0,29.91,West,266,0.0,1.0,83,0.00,,,0.00,,2013-02-24 06:42:00,
2013-02-24 00:52:00,25.0,21.0,29.92,West,266,0.0,1.0,84,0.00,,,0.00,,2013-02-24 06:52:00,
2013-02-24 01:01:00,25.0,21.0,29.92,West,266,0.0,0.0,83,0.00,,,0.00,,2013-02-24 07:01:00,
2013-02-24 01:12:00,25.0,21.0,29.92,West,266,0.0,0.0,83,0.00,,,0.00,,2013-02-24 07:12:00,
2013-02-24 01:21:00,25.0,21.0,29.92,West,266,0.0,0.0,84,0.00,,,0.00,,2013-02-24 07:21:00,
2013-02-24 01:31:00,25.0,21.0,29.92,West,266,0.0,0.0,84,0.00,,,0.00,,2013-02-24 07:31:00,
2013-02-24 01:41:00,25.0,21.0,29.92,West,266,0.0,0.0,84,0.00,,,0.00,,2013-02-24 07:41:00,
2013-02-24 01:52:00,25.0,21.0,29.93,West,266,0.0,1.0,84,0.00,,,0.00,,2013-02-24 07:52:00,
2013-02-24 02:01:00,24.0,20.0,29.93,West,266,0.0,1.0,83,0.00,,,0.00,,2013-02-24 08:01:00,
2013-02-24 02:11:00,24.0,20.0,29.93,West,266,0.0,1.0,83,0.00,,,0.00,,2013-02-24 08:11:00,
2013-02-24 02:22:00,24.0,20.0,29.93,West,266,0.0,1.0,84,0.00,,,0.00,,2013-02-24 08:22:00,
2013-02-24 02:31:00,24.0,20.0,29.93,West,266,0.0,3.0,83,0.00,,,0.00,,2013-02-24 08:31:00,
2013-02-24 02:42:00,24.0,20.0,29.93,West,266,0.0,3.0,83,0.00,,,0.00,,2013-02-24 08:42:00,
2013-02-24 02:54:00,24.0,20.0,29.93,West,266,0.0,2.0,83,0.00,,,0.00,,2013-02-24 08:54:00,
2013-02-24 03:01:00,24.0,20.0,29.93,WSW,244,0.0,2.0,83,0.00,,,0.00,,2013-02-24 09:01:00,
2013-02-24 03:11:00,24.0,20.0,29.93,WSW,244,0.0,2.0,83,0.00,,,0.00,,2013-02-24 09:11:00,
2013-02-24 03:21:00,24.0,20.0,29.93,WSW,248,0.0,0.0,83,0.00,,,0.00,,2013-02-24 09:21:00,
2013-02-24 03:31:00,24.0,20.0,29.93,WSW,248,0.0,0.0,83,0.00,,,0.00,,2013-02-24 09:31:00,
2013-02-24 03:41:00,24.0,20.0,29.93,WSW,248,0.0,0.0,83,0.00,,,0.00,,2013-02-24 09:41:00,
2013-02-24 03:52:00,23.0,19.0,29.93,WSW,248,0.0,2.0,83,0.00,,,0.00,,2013-02-24 09:52:00,
2013-02-24 04:01:00,23.0,19.0,29.94,WSW,248,0.0,0.0,84,0.00,,,0.00,,2013-02-24 10:01:00,
2013-02-24 04:11:00,23.0,19.0,29.94,WSW,248,0.0,0.0,84,0.00,,,0.00,,2013-02-24 10:11:00,
2013-02-24 04:21:00,23.0,19.0,29.94,WSW,248,0.0,1.0,84,0.00,,,0.00,,2013-02-24 10:21:00,
2013-02-24 04:31:00,23.0,19.0,29.95,WSW,248,0.0,1.0,84,0.00,,,0.00,,2013-02-24 10:31:00,
2013-02-24 04:41:00,23.0,19.0,29.95,WSW,248,0.0,1.0,84,0.00,,,0.00,,2013-02-24 10:41:00,
2013-02-24 04:52:00,23.0,19.0,29.95,West,259,0.0,2.0,84,0.00,,,0.00,,2013-02-24 10:52:00,
2013-02-24 05:01:00,23.0,19.0,29.96,West,259,0.0,2.0,84,0.00,,,0.00,,2013-02-24 11:01:00,
2013-02-24 05:11:00,23.0,19.0,29.96,West,259,0.0,2.0,84,0.00,,,0.00,,2013-02-24 11:11:00,
2013-02-24 05:21:00,23.0,19.0,29.96,West,259,0.0,0.0,84,0.00,,,0.00,,2013-02-24 11:21:00,
2013-02-24 05:32:00,23.0,19.0,29.96,West,259,0.0,0.0,83,0.00,,,0.00,,2013-02-24 11:32:00,
2013-02-24 05:41:00,23.0,19.0,29.96,West,259,0.0,0.0,83,0.00,,,0.00,,2013-02-24 11:41:00,
2013-02-24 05:53:00,22.0,18.0,29.96,West,259,0.0,0.0,84,0.00,,,0.00,,2013-02-24 11:53:00,
2013-02-24 06:01:00,22.0,18.0,29.97,West,259,0.0,0.0,84,0.00,,,0.00,,2013-02-24 12:01:00,
2013-02-24 06:11:00,22.0,18.0,29.97,West,259,0.0,0.0,84,0.00,,,0.00,,2013-02-24 12:11:00,
2013-02-24 06:21:00,21.0,17.0,29.98,West,259,0.0,0.0,84,0.00,,,0.00,,2013-02-24 12:21:00,
2013-02-24 06:32:00,21.0,17.0,29.99,West,259,0.0,1.0,85,0.00,,,0.00,,2013-02-24 12:32:00,
2013-02-24 06:46:00,21.0,17.0,29.99,West,259,0.0,1.0,85,0.00,,,0.00,,2013-02-24 12:46:00,
2013-02-24 06:56:00,21.0,17.0,29.99,West,259,0.0,0.0,85,0.00,,,0.00,,2013-02-24 12:56:00,
2013-02-24 07:09:00,21.0,17.0,29.99,West,259,0.0,0.0,84,0.00,,,0.00,,2013-02-24 13:09:00,
2013-02-24 07:16:00,21.0,17.0,29.99,West,259,0.0,0.0,84,0.00,,,0.00,,2013-02-24 13:16:00,
2013-02-24 07:26:00,21.0,17.0,30.00,West,259,0.0,0.0,84,0.00,,,0.00,,2013-02-24 13:26:00,
2013-02-24 07:33:00,21.0,17.0,30.01,West,259,0.0,1.0,84,0.00,,,0.00,,2013-02-24 13:33:00,
2013-02-24 07:43:00,21.0,17.0,30.01,West,259,0.0,1.0,84,0.00,,,0.00,,2013-02-24 13:43:00,
2013-02-24 07:54:00,20.0,16.0,30.01,West,259,0.0,0.0,84,0.00,,,0.00,,2013-02-24 13:54:00,
2013-02-24 08:03:00,20.0,16.0,30.01,West,259,0.0,0.0,84,0.00,,,0.00,,2013-02-24 14:03:00,
2013-02-24 08:13:00,20.0,16.0,30.02,West,259,0.0,0.0,84,0.00,,,0.00,,2013-02-24 14:13:00,
2013-02-24 08:33:00,20.0,16.0,30.01,West,259,0.0,0.0,84,0.00,,,0.00,,2013-02-24 14:33:00,
2013-02-24 08:44:00,20.0,16.0,30.01,West,259,0.0,0.0,84,0.00,,,0.00,,2013-02-24 14:44:00,
2013-02-24 08:54:00,21.0,17.0,30.01,West,259,0.0,0.0,84,0.00,,,0.00,,2013-02-24 14:54:00,
2013-02-24 09:02:00,21.0,17.0,30.02,West,259,0.0,0.0,84,0.00,,,0.00,,2013-02-24 15:02:00,
2013-02-24 09:13:00,22.0,18.0,30.03,West,259,0.0,0.0,83,0.00,,,0.00,,2013-02-24 15:13:00,
2013-02-24 09:32:00,23.0,18.0,30.03,West,259,0.0,1.0,82,0.00,,,0.00,,2013-02-24 15:32:00,
2013-02-24 09:42:00,23.0,18.0,30.03,West,259,0.0,1.0,82,0.00,,,0.00,,2013-02-24 15:42:00,
2013-02-24 09:53:00,25.0,20.0,30.03,SW,225,0.0,3.0,80,0.00,,,0.00,,2013-02-24 15:53:00,
2013-02-24 10:01:00,25.0,19.0,30.03,SW,225,0.0,1.0,79,0.00,,,0.00,,2013-02-24 16:01:00,
2013-02-24 10:11:00,26.0,19.0,30.04,SW,225,0.0,0.0,76,0.00,,,0.00,,2013-02-24 16:11:00,
2013-02-24 10:21:00,26.0,19.0,30.04,SW,225,0.0,0.0,76,0.00,,,0.00,,2013-02-24 16:21:00,
2013-02-24 10:32:00,27.0,20.0,30.04,WSW,246,0.0,1.0,75,0.00,,,0.00,,2013-02-24 16:32:00,
2013-02-24 10:41:00,27.0,20.0,30.04,WSW,246,0.0,1.0,75,0.00,,,0.00,,2013-02-24 16:41:00,
2013-02-24 10:52:00,29.0,22.0,30.04,WSW,251,0.0,0.0,75,0.00,,,0.00,,2013-02-24 16:52:00,
2013-02-24 11:01:00,29.0,22.0,30.03,North,5,0.0,0.0,74,0.00,,,0.00,,2013-02-24 17:01:00,
2013-02-24 11:11:00,29.0,22.0,30.03,North,5,0.0,0.0,74,0.00,,,0.00,,2013-02-24 17:11:00,
2013-02-24 11:21:00,29.0,21.0,30.03,NW,316,0.0,1.0,73,0.00,,,0.00,,2013-02-24 17:21:00,
2013-02-24 11:32:00,30.0,22.0,30.04,NW,312,0.0,1.0,72,0.00,,,0.00,,2013-02-24 17:32:00,
2013-02-24 11:41:00,30.0,22.0,30.04,NW,312,0.0,1.0,72,0.00,,,0.00,,2013-02-24 17:41:00,
2013-02-24 11:52:00,31.0,22.0,30.03,NE,34,0.0,2.0,69,0.00,,,0.00,,2013-02-24 17:52:00,
2013-02-24 12:01:00,32.0,23.0,30.04,NNE,22,0.0,1.0,68,0.00,,,0.00,,2013-02-24 18:01:00,
2013-02-24 12:11:00,32.0,23.0,30.04,NNE,22,0.0,1.0,68,0.00,,,0.00,,2013-02-24 18:11:00,
2013-02-24 12:22:00,32.0,22.0,30.03,NNE,26,0.0,1.0,66,0.00,,,0.00,,2013-02-24 18:22:00,
2013-02-24 12:31:00,33.0,24.0,30.04,NW,309,0.0,0.0,68,0.00,,,0.00,,2013-02-24 18:31:00,
2013-02-24 12:42:00,33.0,24.0,30.04,NW,309,0.0,0.0,68,0.00,,,0.00,,2013-02-24 18:42:00,
2013-02-24 12:52:00,34.0,23.0,30.04,West,262,2.0,3.0,64,0.01,,,0.01,,2013-02-24 18:52:00,
2013-02-24 13:01:00,34.0,22.0,30.04,North,5,1.0,3.0,62,0.01,,,0.01,,2013-02-24 19:01:00,
2013-02-24 13:11:00,34.0,22.0,30.04,North,5,1.0,3.0,62,0.01,,,0.01,,2013-02-24 19:11:00,
2013-02-24 13:22:00,34.0,23.0,30.04,NW,317,0.0,3.0,63,0.02,,,0.02,,2013-02-24 19:22:00,
2013-02-24 13:32:00,34.0,23.0,30.04,West,271,0.0,3.0,65,0.03,,,0.03,,2013-02-24 19:32:00,
2013-02-24 13:41:00,34.0,23.0,30.04,West,271,0.0,3.0,65,0.03,,,0.03,,2013-02-24 19:41:00,
2013-02-24 13:52:00,35.0,24.0,30.04,West,259,0.0,2.0,63,0.04,,,0.05,,2013-02-24 19:52:00,
2013-02-24 14:02:00,35.0,23.0,30.04,West,267,1.0,3.0,61,0.04,,,0.05,,2013-02-24 20:02:00,
2013-02-24 14:11:00,35.0,23.0,30.04,West,267,1.0,3.0,61,0.04,,,0.05,,2013-02-24 20:11:00,
2013-02-24 14:21:00,35.0,23.0,30.03,NE,40,0.0,2.0,62,0.03,,,0.06,,2013-02-24 20:21:00,
2013-02-24 14:31:00,35.0,24.0,30.03,NNE,21,0.0,3.0,63,0.03,,,0.06,,2013-02-24 20:31:00,
2013-02-24 14:41:00,35.0,24.0,30.03,NNE,21,0.0,3.0,63,0.03,,,0.06,,2013-02-24 20:41:00,
2013-02-24 14:52:00,34.0,23.0,30.03,NE,34,0.0,1.0,63,0.01,,,0.06,,2013-02-24 20:52:00,
2013-02-24 15:01:00,35.0,23.0,30.03,NNE,28,2.0,3.0,60,0.01,,,0.06,,2013-02-24 21:01:00,
2013-02-24 15:11:00,35.0,23.0,30.03,NNE,28,2.0,3.0,60,0.01,,,0.06,,2013-02-24 21:11:00,
2013-02-24 15:21:00,35.0,24.0,30.03,NNE,28,0.0,0.0,63,0.00,,,0.06,,2013-02-24 21:21:00,
2013-02-24 15:32:00,35.0,24.0,30.03,North,5,0.0,1.0,64,0.01,,,0.07,,2013-02-24 21:32:00,
2013-02-24 15:41:00,35.0,24.0,30.03,North,5,0.0,1.0,64,0.01,,,0.07,,2013-02-24 21:41:00,
2013-02-24 15:52:00,35.0,23.0,30.03,NNE,22,0.0,2.0,60,0.01,,,0.07,,2013-02-24 21:52:00,
2013-02-24 16:01:00,35.0,23.0,30.03,NNE,22,0.0,1.0,62,0.01,,,0.07,,2013-02-24 22:01:00,
2013-02-24 16:11:00,35.0,23.0,30.03,NNE,22,0.0,1.0,62,0.01,,,0.07,,2013-02-24 22:11:00,
2013-02-24 16:21:00,34.0,23.0,30.03,NNE,22,0.0,0.0,63,0.01,,,0.07,,2013-02-24 22:21:00,
2013-02-24 16:31:00,34.0,22.0,30.02,NNE,22,0.0,1.0,62,0.00,,,0.07,,2013-02-24 22:31:00,
2013-02-24 16:41:00,34.0,22.0,30.02,NNE,22,0.0,1.0,62,0.00,,,0.07,,2013-02-24 22:41:00,
2013-02-24 16:52:00,34.0,23.0,30.03,NNE,22,0.0,3.0,63,0.00,,,0.07,,2013-02-24 22:52:00,
2013-02-24 17:02:00,34.0,23.0,30.03,NE,40,0.0,3.0,64,0.00,,,0.07,,2013-02-24 23:02:00,
2013-02-24 17:11:00,34.0,23.0,30.03,NE,40,0.0,3.0,64,0.00,,,0.07,,2013-02-24 23:11:00,
2013-02-24 17:21:00,33.0,22.0,30.03,NE,40,0.0,0.0,64,0.00,,,0.07,,2013-02-24 23:21:00,
2013-02-24 17:31:00,33.0,22.0,30.03,NE,40,0.0,1.0,64,0.00,,,0.07,,2013-02-24 23:31:00,
2013-02-24 17:41:00,33.0,22.0,30.03,NE,40,0.0,1.0,64,0.00,,,0.07,,2013-02-24 23:41:00,
2013-02-24 17:52:00,32.0,22.0,30.03,NE,40,0.0,0.0,66,0.01,,,0.08,,2013-02-24 23:52:00,
2013-02-24 18:01:00,32.0,22.0,30.03,NE,40,0.0,0.0,66,0.01,,,0.08,,2013-02-25 00:01:00,
2013-02-24 18:11:00,32.0,22.0,30.03,NE,40,0.0,0.0,66,0.01,,,0.08,,2013-02-25 00:11:00,
2013-02-24 18:21:00,31.0,22.0,30.03,NE,40,0.0,0.0,70,0.01,,,0.08,,2013-02-25 00:21:00,
2013-02-24 18:31:00,30.0,23.0,30.03,NE,40,0.0,0.0,75,0.01,,,0.08,,2013-02-25 00:31:00,
2013-02-24 18:42:00,30.0,23.0,30.03,NE,40,0.0,0.0,75,0.01,,,0.08,,2013-02-25 00:42:00,
2013-02-24 18:52:00,30.0,24.0,30.05,NE,40,0.0,0.0,77,0.00,,,0.08,,2013-02-25 00:52:00,
2013-02-24 19:01:00,29.0,23.0,30.06,NE,40,0.0,0.0,77,0.00,,,0.08,,2013-02-25 01:01:00,
2013-02-24 19:11:00,29.0,23.0,30.06,NE,40,0.0,0.0,77,0.00,,,0.08,,2013-02-25 01:11:00,
2013-02-24 19:21:00,29.0,23.0,30.05,NE,40,0.0,0.0,78,0.00,,,0.08,,2013-02-25 01:21:00,
2013-02-24 19:31:00,29.0,23.0,30.05,NE,40,0.0,0.0,78,0.00,,,0.08,,2013-02-25 01:31:00,
2013-02-24 19:42:00,29.0,23.0,30.05,NE,40,0.0,0.0,78,0.00,,,0.08,,2013-02-25 01:42:00,
2013-02-24 19:52:00,28.0,22.0,30.06,NE,40,0.0,0.0,79,0.00,,,0.08,,2013-02-25 01:52:00,
2013-02-24 20:01:00,27.0,21.0,30.05,NE,40,0.0,0.0,79,0.00,,,0.08,,2013-02-25 02:01:00,
2013-02-24 20:11:00,27.0,22.0,30.06,NE,40,0.0,0.0,80,0.00,,,0.08,,2013-02-25 02:11:00,
2013-02-24 20:21:00,27.0,22.0,30.06,NE,40,0.0,0.0,80,0.00,,,0.08,,2013-02-25 02:21:00,
2013-02-24 20:31:00,26.0,21.0,30.06,NE,40,0.0,0.0,80,0.00,,,0.08,,2013-02-25 02:31:00,
2013-02-24 20:41:00,26.0,21.0,30.06,NE,40,0.0,0.0,80,0.00,,,0.08,,2013-02-25 02:41:00,
2013-02-24 20:52:00,26.0,21.0,30.06,NE,40,0.0,0.0,81,0.00,,,0.08,,2013-02-25 02:52:00,
2013-02-24 21:01:00,25.0,20.0,30.05,NE,40,0.0,0.0,81,0.00,,,0.08,,2013-02-25 03:01:00,
2013-02-24 21:11:00,25.0,20.0,30.05,NE,40,0.0,0.0,81,0.00,,,0.08,,2013-02-25 03:11:00,
2013-02-24 21:21:00,24.0,20.0,30.05,NE,40,0.0,0.0,83,0.00,,,0.08,,2013-02-25 03:21:00,
2013-02-24 21:31:00,24.0,20.0,30.05,NE,40,0.0,0.0,84,0.00,,,0.08,,2013-02-25 03:31:00,
2013-02-24 21:41:00,24.0,20.0,30.05,NE,40,0.0,0.0,84,0.00,,,0.08,,2013-02-25 03:41:00,
2013-02-24 21:52:00,24.0,20.0,30.05,NE,40,0.0,0.0,84,0.00,,,0.08,,2013-02-25 03:52:00,
2013-02-24 22:01:00,23.0,19.0,30.06,NE,40,0.0,0.0,84,0.00,,,0.08,,2013-02-25 04:01:00,
2013-02-24 22:11:00,23.0,19.0,30.06,NE,40,0.0,0.0,84,0.00,,,0.08,,2013-02-25 04:11:00,
2013-02-24 22:21:00,22.0,18.0,30.06,NE,40,0.0,0.0,84,0.00,,,0.08,,2013-02-25 04:21:00,
2013-02-24 22:31:00,22.0,18.0,30.06,NE,40,0.0,0.0,85,0.00,,,0.08,,2013-02-25 04:31:00,
2013-02-24 22:41:00,22.0,18.0,30.06,NE,40,0.0,0.0,85,0.00,,,0.08,,2013-02-25 04:41:00,
2013-02-24 22:52:00,22.0,18.0,30.06,NE,40,0.0,0.0,85,0.00,,,0.08,,2013-02-25 04:52:00,
2013-02-24 23:01:00,22.0,18.0,30.06,NE,40,0.0,0.0,85,0.00,,,0.08,,2013-02-25 05:01:00,
2013-02-24 23:11:00,22.0,18.0,30.06,NE,40,0.0,0.0,85,0.00,,,0.08,,2013-02-25 05:11:00,
2013-02-24 23:22:00,21.0,17.0,30.06,NE,40,0.0,0.0,85,0.00,,,0.08,,2013-02-25 05:22:00,
2013-02-24 23:31:00,21.0,17.0,30.06,NE,40,0.0,0.0,85,0.00,,,0.08,,2013-02-25 05:31:00,
2013-02-24 23:41:00,21.0,17.0,30.06,NE,40,0.0,0.0,85,0.00,,,0.08,,2013-02-25 05:41:00,
2013-02-24 23:52:00,21.0,17.0,30.07,NE,40,0.0,0.0,85,0.00,,,0.08,,2013-02-25 05:52:00,